This is the latest recevied weather packets stored in our database for station/object N0NPO. If no packets are shown the sender has not sent any weather packets the latest 10 day(s).
| Time | Temp. | Humidity | Pressure | Rain* | Wind** | Luminosity | Snow |
|---|---|---|---|---|---|---|---|
| 1777820194 | 13.89° C | 1% | 1017.7 hPa | 0 mm | - | 367 W/m² | - |
| 1777819891 | 13.33° C | 1% | 1017.7 hPa | 0 mm | - | 420 W/m² | - |
| 1777819589 | 12.78° C | 1% | 1017.8 hPa | 0 mm | - | 345 W/m² | - |
| 1777819286 | 13.33° C | 1% | 1017.7 hPa | 0 mm | - | 280 W/m² | - |
| 1777818983 | 12.78° C | 1% | 1017.9 hPa | 0 mm | - | 360 W/m² | - |
| 1777818680 | 12.78° C | 1% | 1017.9 hPa | 0 mm | - | 327 W/m² | - |
| 1777818377 | 12.22° C | 1% | 1018.1 hPa | 0 mm | - | 361 W/m² | - |
| 1777818073 | 11.67° C | 1% | 1018.1 hPa | 0 mm | - | 262 W/m² | - |
| 1777817770 | 11.67° C | 1% | 1018.1 hPa | 0 mm | - | 302 W/m² | - |
| 1777817468 | 11.67° C | 1% | 1018.3 hPa | 0 mm | - | 303 W/m² | - |
| 1777817163 | 11.67° C | 1% | 1018 hPa | 0 mm | - | 196 W/m² | - |
| 1777816861 | 11.67° C | 1% | 1018.1 hPa | 0 mm | - | 254 W/m² | - |
| 1777816558 | 11.67° C | 1% | 1018.1 hPa | 0 mm | - | 209 W/m² | - |
| 1777816255 | 11.11° C | 1% | 1018.1 hPa | 0 mm | - | 202 W/m² | - |
| 1777815952 | 11.11° C | 1% | 1018.1 hPa | 0 mm | - | 204 W/m² | - |
| 1777815650 | 11.11° C | 1% | 1018.2 hPa | 0 mm | - | 168 W/m² | - |
| 1777815347 | 11.11° C | 1% | 1018.3 hPa | 0 mm | - | 192 W/m² | - |
| 1777815044 | 10.56° C | 1% | 1018.2 hPa | 0 mm | - | 208 W/m² | - |
| 1777814740 | 10.56° C | 1% | 1018.1 hPa | 0 mm | - | 196 W/m² | - |
| 1777814437 | 10.56° C | 1% | 1018.1 hPa | 0 mm | - | 185 W/m² | - |
| 1777814134 | 10° C | 1% | 1018.1 hPa | 0 mm | - | 161 W/m² | - |
| 1777813831 | 10° C | 1% | 1018.1 hPa | 0 mm | - | 148 W/m² | - |
| 1777813528 | 10° C | 1% | 1018 hPa | 0 mm | - | 117 W/m² | - |
| 1777813226 | 10° C | 1% | 1017.8 hPa | 0 mm | - | 131 W/m² | - |
| 1777812923 | 9.44° C | 1% | 1017.9 hPa | 0 mm | - | 119 W/m² | - |
* Rain latest hour (hover to see other rain measurements)
** Current wind speed in m/s (hover to see current wind gust speed)